Terminal Aerodrome Forecast
Issued by NWS

Home | Current Version | Previous Version | Text Only | Print | Product List | Glossary Off
Versions: 1 2 3 4 5 6 7 8 9 10 11 12 13 14

000
FTUS43 KTOP 280500
TAFMHK
TAF
KMHK 280520Z 2806/2906 34003KT P6SM BKN120
     FM281700 30009KT P6SM SCT200=

USA.gov is the U.S. government's official web portal to all federal, state and local government web resources and services.